ACA2189 MMUN-CYHZ

Flight info

Callsign ACA2189
Flight time N/A
Altitude 33000
Route ROTGI2A ROTGI UM219 MYDIA M219 KNOST Q109 RAYVO/N0460F350 Q109 YURCK Q97 SAWED Q108 ZJAAY Q167 RIFLE Q430 ACK DCT TUSKY PEGGY5
Aircraft B738/M-SDE2E3FGHIRWXY/LB1

Departure

Time N/A
Airport Cancún International Airport (MMUN)

Arrival

Time 2026-05-08 00:35
Airport Halifax / Stanfield International Airport (CYHZ)
Time Latitude Longitude Altitude Speed Heading
2026-05-08 00:06 43.53291 -67.04471 34747 ft 577 kts 44°
2026-05-08 00:06 43.58040 -66.95529 34742 ft 579 kts 64°
2026-05-08 00:07 43.61316 -66.85424 34745 ft 577 kts 71°
2026-05-08 00:07 43.62837 -66.80378 34636 ft 579 kts 71°
2026-05-08 00:07 43.64384 -66.75248 34369 ft 578 kts 71°
2026-05-08 00:08 43.65940 -66.70160 34123 ft 572 kts 73°
2026-05-08 00:08 43.67498 -66.65139 33882 ft 565 kts 73°
2026-05-08 00:08 43.69047 -66.60192 33639 ft 558 kts 73°
2026-05-08 00:08 43.70583 -66.55304 33378 ft 553 kts 74°
2026-05-08 00:09 43.72112 -66.50419 33148 ft 555 kts 74°
2026-05-08 00:09 43.73645 -66.45502 32911 ft 559 kts 74°
2026-05-08 00:09 43.75185 -66.40545 32666 ft 562 kts 74°
2026-05-08 00:09 43.76707 -66.35644 32421 ft 562 kts 75°
2026-05-08 00:10 43.78249 -66.30670 32176 ft 562 kts 75°
2026-05-08 00:10 43.79788 -66.25699 31929 ft 563 kts 75°
2026-05-08 00:10 43.81340 -66.20722 31680 ft 564 kts 74°
2026-05-08 00:10 43.82896 -66.15755 31427 ft 561 kts 75°
2026-05-08 00:11 43.84427 -66.10786 31185 ft 561 kts 75°
2026-05-08 00:11 43.85948 -66.05810 30958 ft 561 kts 76°
2026-05-08 00:11 43.87455 -66.00835 30686 ft 560 kts 76°
2026-05-08 00:11 43.88945 -65.95903 30453 ft 565 kts 76°
2026-05-08 00:12 43.90464 -65.90848 30216 ft 569 kts 76°
2026-05-08 00:12 43.91966 -65.85803 29952 ft 565 kts 76°
2026-05-08 00:12 43.93474 -65.80790 29386 ft 562 kts 75°
2026-05-08 00:12 43.95000 -65.75812 28846 ft 557 kts 74°
2026-05-08 00:13 43.96518 -65.70871 28331 ft 556 kts 74°
2026-05-08 00:13 43.98027 -65.65951 27792 ft 551 kts 73°
2026-05-08 00:13 43.99519 -65.61070 27273 ft 547 kts 73°
2026-05-08 00:13 44.00997 -65.56227 26766 ft 542 kts 72°
2026-05-08 00:14 44.02434 -65.51494 26250 ft 538 kts 72°
2026-05-08 00:14 44.03865 -65.46714 25743 ft 533 kts 71°
2026-05-08 00:14 44.05276 -65.41969 25239 ft 528 kts 71°
2026-05-08 00:14 44.06672 -65.37267 24735 ft 524 kts 71°
2026-05-08 00:15 44.08058 -65.32603 24235 ft 520 kts 70°
2026-05-08 00:15 44.09433 -65.27974 23737 ft 516 kts 70°
2026-05-08 00:15 44.10798 -65.23382 23234 ft 512 kts 70°
2026-05-08 00:15 44.12149 -65.18830 22739 ft 507 kts 70°
2026-05-08 00:16 44.13488 -65.14312 22248 ft 502 kts 70°
2026-05-08 00:16 44.14812 -65.09836 21756 ft 497 kts 71°
2026-05-08 00:16 44.16104 -65.05461 21276 ft 493 kts 71°
2026-05-08 00:16 44.17398 -65.01070 20783 ft 488 kts 71°
2026-05-08 00:17 44.18679 -64.96716 20295 ft 483 kts 71°
2026-05-08 00:17 44.19945 -64.92405 19814 ft 479 kts 71°
2026-05-08 00:17 44.21188 -64.88163 19325 ft 474 kts 71°
2026-05-08 00:17 44.22437 -64.83897 18852 ft 468 kts 71°
2026-05-08 00:18 44.23655 -64.79728 18369 ft 460 kts 71°
2026-05-08 00:18 44.24848 -64.75641 17902 ft 452 kts 71°
2026-05-08 00:18 44.26005 -64.71667 17465 ft 444 kts 71°
2026-05-08 00:18 44.27153 -64.67719 17218 ft 436 kts 71°
2026-05-08 00:19 44.28285 -64.63817 16836 ft 432 kts 71°
2026-05-08 00:19 44.29408 -64.59941 16397 ft 429 kts 71°
2026-05-08 00:19 44.30522 -64.56085 15955 ft 427 kts 71°
2026-05-08 00:19 44.31628 -64.52255 15510 ft 424 kts 70°
2026-05-08 00:20 44.32727 -64.48443 15065 ft 422 kts 70°
2026-05-08 00:20 44.33816 -64.44662 14610 ft 419 kts 70°
2026-05-08 00:20 44.34900 -64.40894 14169 ft 416 kts 70°
2026-05-08 00:20 44.35960 -64.37203 13722 ft 413 kts 70°
2026-05-08 00:21 44.37026 -64.33486 13280 ft 411 kts 70°
2026-05-08 00:21 44.38083 -64.29790 12837 ft 408 kts 70°
2026-05-08 00:21 44.39133 -64.26118 12391 ft 405 kts 70°
2026-05-08 00:21 44.40175 -64.22474 11946 ft 402 kts 70°
2026-05-08 00:22 44.41205 -64.18863 11506 ft 398 kts 70°
2026-05-08 00:22 44.42263 -64.15307 11067 ft 395 kts 66°
2026-05-08 00:22 44.43480 -64.11890 10800 ft 387 kts 63°
2026-05-08 00:22 44.44720 -64.08664 10640 ft 376 kts 62°
2026-05-08 00:23 44.45960 -64.05499 10479 ft 366 kts 62°
2026-05-08 00:23 44.47166 -64.02407 10325 ft 357 kts 62°
2026-05-08 00:23 44.48332 -63.99394 10175 ft 348 kts 63°
2026-05-08 00:23 44.49461 -63.96449 10037 ft 339 kts 63°
2026-05-08 00:24 44.50554 -63.93581 9993 ft 327 kts 63°
2026-05-08 00:24 44.51610 -63.90792 9633 ft 328 kts 63°
2026-05-08 00:24 44.52675 -63.87967 9249 ft 326 kts 63°
2026-05-08 00:24 44.53717 -63.85204 8910 ft 323 kts 63°
2026-05-08 00:25 44.54755 -63.82448 8606 ft 318 kts 63°
2026-05-08 00:25 44.55779 -63.79723 8299 ft 313 kts 63°
2026-05-08 00:25 44.56786 -63.77044 8004 ft 308 kts 63°
2026-05-08 00:25 44.57778 -63.74403 7727 ft 306 kts 63°
2026-05-08 00:26 44.58766 -63.71770 7439 ft 304 kts 63°
2026-05-08 00:26 44.59744 -63.69155 7187 ft 299 kts 63°
2026-05-08 00:26 44.60697 -63.66606 6878 ft 292 kts 62°
2026-05-08 00:26 44.61629 -63.64117 6578 ft 284 kts 62°
2026-05-08 00:27 44.62531 -63.61708 6309 ft 274 kts 62°
2026-05-08 00:27 44.63391 -63.59406 6047 ft 265 kts 62°
2026-05-08 00:27 44.64230 -63.57157 5799 ft 256 kts 62°
2026-05-08 00:27 44.65044 -63.54973 5561 ft 248 kts 62°
2026-05-08 00:28 44.65832 -63.52858 5340 ft 242 kts 62°
2026-05-08 00:28 44.66603 -63.50785 5205 ft 237 kts 62°
2026-05-08 00:28 44.67363 -63.48738 5095 ft 235 kts 62°
2026-05-08 00:28 44.68116 -63.46711 4984 ft 234 kts 62°
2026-05-08 00:29 44.68869 -63.44693 4777 ft 232 kts 62°
2026-05-08 00:29 44.69597 -63.42725 4574 ft 228 kts 62°
2026-05-08 00:29 44.70323 -63.40769 4384 ft 223 kts 62°
2026-05-08 00:29 44.71036 -63.38841 4180 ft 222 kts 61°
2026-05-08 00:30 44.71793 -63.36975 3981 ft 219 kts 47°
2026-05-08 00:30 44.72952 -63.35666 3821 ft 210 kts 29°
2026-05-08 00:30 44.74152 -63.34522 3649 ft 207 kts 31°
2026-05-08 00:30 44.75326 -63.33366 3473 ft 204 kts 31°
2026-05-08 00:31 44.76481 -63.32225 3284 ft 202 kts 31°
2026-05-08 00:31 44.77691 -63.31462 3055 ft 187 kts 355°
2026-05-08 00:31 44.78797 -63.32057 3038 ft 169 kts 314°
2026-05-08 00:31 44.79718 -63.33110 3007 ft 171 kts 315°
2026-05-08 00:32 44.80530 -63.34303 3002 ft 166 kts 307°
2026-05-08 00:32 44.81264 -63.35591 2826 ft 169 kts 304°
2026-05-08 00:32 44.81948 -63.36896 2631 ft 162 kts 303°
2026-05-08 00:32 44.82593 -63.38167 2400 ft 156 kts 303°
2026-05-08 00:33 44.83214 -63.39406 2203 ft 155 kts 303°
2026-05-08 00:33 44.83841 -63.40664 2001 ft 158 kts 304°
2026-05-08 00:33 44.84475 -63.41934 1783 ft 158 kts 304°
2026-05-08 00:33 44.85076 -63.43135 1590 ft 148 kts 304°
2026-05-08 00:34 44.85658 -63.44303 1416 ft 147 kts 305°
2026-05-08 00:34 44.86242 -63.45471 1197 ft 144 kts 305°
2026-05-08 00:34 44.86810 -63.46609 1056 ft 139 kts 305°
2026-05-08 00:34 44.87357 -63.47722 806 ft 138 kts 305°
2026-05-08 00:35 44.87915 -63.48836 604 ft 141 kts 306°
2026-05-08 00:35 44.88485 -63.49967 455 ft 137 kts 306°
2026-05-08 00:35 44.88939 -63.50874 449 ft 83 kts 304°
2026-05-08 00:35 44.89105 -63.51207 448 ft 43 kts 305°
2026-05-08 00:36 44.89271 -63.51539 451 ft 22 kts 305°
2026-05-08 00:36 44.89348 -63.51693 452 ft 14 kts 300°
2026-05-08 00:36 44.89332 -63.51787 452 ft 11 kts 219°
2026-05-08 00:36 44.89271 -63.51839 451 ft 10 kts 193°
2026-05-08 00:37 44.89212 -63.51798 451 ft 10 kts 128°
2026-05-08 00:37 44.89173 -63.51719 451 ft 10 kts 125°
2026-05-08 00:37 44.89147 -63.51668 451 ft 10 kts 126°
2026-05-08 00:38 44.89072 -63.51521 451 ft 9 kts 126°
2026-05-08 00:38 44.89038 -63.51451 451 ft 8 kts 122°
2026-05-08 00:38 44.88996 -63.51361 451 ft 8 kts 124°
2026-05-08 00:38 44.88946 -63.51327 451 ft 8 kts 165°
2026-05-08 00:39 44.88894 -63.51311 451 ft 8 kts 169°
2026-05-08 00:39 44.88859 -63.51301 451 ft 8 kts 169°
2026-05-08 00:39 44.88809 -63.51287 451 ft 7 kts 169°
2026-05-08 00:39 44.88761 -63.51288 451 ft 7 kts 210°
2026-05-08 00:40 44.88751 -63.51345 451 ft 4 kts 282°
2026-05-08 00:40 44.88760 -63.51378 451 ft 3 kts 297°
2026-05-08 00:40 44.88768 -63.51401 451 ft 2 kts 296°
2026-05-08 00:40 44.88769 -63.51404 451 ft 0 kts 296°